WetterOnline ( http://www.wetteronline.de )

Wetter aktuell Langeoog

Aktuelles Wetter: Norderney (16m)

6-stündlich | Neueste Meldungen
Ortszeit Temperatur Wetter
Sa, 23.02. 7:00 0.8° C wolkig
Sa, 23.02. 1:00 4.2° C wolkig
Fr, 22.02. 19:00 6.4° C bedeckt
Fr, 22.02. 13:00 7.4° C bedeckt
Fr, 22.02. 7:00 5.9° C bedeckt
Fr, 22.02. 1:00 6.2° C bedeckt
Do, 21.02. 19:00 6.5° C bedeckt
Do, 21.02. 13:00 8.0° C bedeckt
Ortszeit Temperatur Wetter
Sa, 23.02. 11:00 3.4° C bedeckt
Sa, 23.02. 10:50 3.4° C bedeckt
Sa, 23.02. 10:40 2.9° C bewölkt
Sa, 23.02. 10:30 2.0° C bedeckt
Sa, 23.02. 10:20 2.0° C bedeckt
Sa, 23.02. 10:10 1.8° C Nebel
Sa, 23.02. 10:00 1.6° C Nebel
Sa, 23.02. 9:30 1.1° C Nebel
Sa, 23.02. 9:00 0.9° C Nebel
Sa, 23.02. 8:30 0.7° C Nebel
Sa, 23.02. 8:00 0.5° C Nebel
Ortszeit Relative Feuchte Sichtweite
Sa, 23.02. 7:00 92% 6 km
Sa, 23.02. 1:00 87% 28 km
Fr, 22.02. 19:00 89% 15 km
Fr, 22.02. 13:00 89% 19 km
Fr, 22.02. 7:00 98% 3.8 km
Fr, 22.02. 1:00 97% 3.8 km
Do, 21.02. 19:00 98% 1.8 km
Do, 21.02. 13:00 93% 8 km
Ortszeit Relative Feuchte Sichtweite
Sa, 23.02. 11:00 96% 7 km
Sa, 23.02. 10:50 96% -
Sa, 23.02. 10:40 100% -
Sa, 23.02. 10:30 99% 1.3 km
Sa, 23.02. 10:20 99% -
Sa, 23.02. 10:10 99% -
Sa, 23.02. 10:00 99% 0.3 km
Sa, 23.02. 9:30 99% 0.2 km
Sa, 23.02. 9:00 99% 0.2 km
Sa, 23.02. 8:30 99% 0.2 km
Sa, 23.02. 8:00 98% 0.2 km
Ortszeit Niederschlagsmenge Niederschlagsart
Sa, 23.02. 7:00 0.0 l/m2 in 12 Std. -
Sa, 23.02. 1:00 0.0 l/m2 in 6 Std. -
Fr, 22.02. 19:00 0.0 l/m2 in 12 Std. -
Fr, 22.02. 13:00 0.0 l/m2 in 6 Std. -
Fr, 22.02. 7:00 0.1 l/m2 in 12 Std. -
Fr, 22.02. 1:00 0.1 l/m2 in 6 Std. Sprühregen
Do, 21.02. 19:00 0.1 l/m2 in 12 Std. Regen
Do, 21.02. 13:00 0.1 l/m2 in 6 Std. Sprühregen
Ortszeit Niederschlagsmenge Niederschlagsart
Sa, 23.02. 11:00 0.0 l/m2 in 1 Std. -
Sa, 23.02. 10:50 keine Meldung -
Sa, 23.02. 10:40 keine Meldung -
Sa, 23.02. 10:30 0.0 l/m2 in 1 Std. -
Sa, 23.02. 10:20 keine Meldung -
Sa, 23.02. 10:10 keine Meldung -
Sa, 23.02. 10:00 0.0 l/m2 in 1 Std. -
Sa, 23.02. 9:30 0.0 l/m2 in 1 Std. -
Sa, 23.02. 9:00 0.0 l/m2 in 1 Std. -
Sa, 23.02. 8:30 0.0 l/m2 in 1 Std. -
Sa, 23.02. 8:00 0.0 l/m2 in 1 Std. -
Ortszeit Stärke Spitze Richtung
km/h Bft. km/h Grad Sektor
Sa, 23.02. 7:00 19 3 28 140° SO
Sa, 23.02. 1:00 14 3 29 140° SO
Fr, 22.02. 19:00 14 3 29 120° SO
Fr, 22.02. 13:00 13 3 24 100° O
Fr, 22.02. 7:00 11 2 22 40° NO
Fr, 22.02. 1:00 11 2 26 280° W
Do, 21.02. 19:00 18 3 36 270° W
Do, 21.02. 13:00 19 3 37 240° SW
Ortszeit Stärke Spitze Richtung
km/h Bft. km/h Grad Sektor
Sa, 23.02. 11:00 18 3 29 160° S
Sa, 23.02. 10:50 18 3 - 160° S
Sa, 23.02. 10:40 15 3 - 160° S
Sa, 23.02. 10:30 17 3 28 160° S
Sa, 23.02. 10:20 17 3 - 160° S
Sa, 23.02. 10:10 19 3 - 160° S
Sa, 23.02. 10:00 18 3 29 160° S
Sa, 23.02. 9:30 18 3 29 160° S
Sa, 23.02. 9:00 14 3 25 150° SO
Sa, 23.02. 8:30 14 3 25 150° SO
Sa, 23.02. 8:00 19 3 26 150° SO
Ortszeit Untergrenze Bedeckung Gattung
total tief tief mittel hoch
Sa, 23.02. 7:00 10500 m 8/8 0/8 - - -
Sa, 23.02. 1:00 8400 m 8/8 0/8 - - -
Fr, 22.02. 19:00 420 m 8/8 8/8 - - -
Fr, 22.02. 13:00 240 m 8/8 8/8 - - -
Fr, 22.02. 7:00 30 m 8/8 8/8 - - -
Fr, 22.02. 1:00 750 m 8/8 8/8 - - -
Do, 21.02. 19:00 30 m 8/8 8/8 - - -
Do, 21.02. 13:00 180 m 8/8 8/8 - - -
Ortszeit Bedeckungsgrad in Achtel und Wolkenuntergrenze
Sa, 23.02. 11:00 8
Sa, 23.02. 10:50 9 9 9
Sa, 23.02. 10:40 7(60m)
Sa, 23.02. 10:30 8(<30m)
Sa, 23.02. 10:20 8(<30m)
Sa, 23.02. 10:10 8(<30m)
Sa, 23.02. 10:00 8(<30m)
Sa, 23.02. 9:30 8(<30m)
Sa, 23.02. 9:00 8(<30m)
Sa, 23.02. 8:30 8(<30m)
Sa, 23.02. 8:00 8(<30m)
Ortszeit Luftdruck NN (hPa) Tendenz (hPa in 3 Std.)
Sa, 23.02. 7:00 1040 - 0,8
Sa, 23.02. 1:00 1041 - 0,5
Fr, 22.02. 19:00 1040 + 1,0
Fr, 22.02. 13:00 1038 + 1,5
Fr, 22.02. 7:00 1034 + 2,2
Fr, 22.02. 1:00 1030 + 1,7
Do, 21.02. 19:00 1026 + 1,7
Do, 21.02. 13:00 1024 + 0,9
Ortszeit Luftdruck NN (hPa) Tendenz (hPa in 3 Std.)
Sa, 23.02. 11:00 1040 - 0,2
Sa, 23.02. 10:50 1040 keine Meldung
Sa, 23.02. 10:40 1040 keine Meldung
Sa, 23.02. 10:30 1040 + 0,1
Sa, 23.02. 10:20 1040 keine Meldung
Sa, 23.02. 10:10 1040 keine Meldung
Sa, 23.02. 10:00 1040 + 0,3
Sa, 23.02. 9:30 1040 - 0,3
Sa, 23.02. 9:00 1041 + 0,1
Sa, 23.02. 8:30 1041 - 0,1
Sa, 23.02. 8:00 1040 - 0,6
Ortszeit Schneehöhe (cm)
Sa, 23.02. 7:00 0
Sa, 23.02. 1:00 0
Fr, 22.02. 19:00 0
Fr, 22.02. 13:00 0
Fr, 22.02. 7:00 0
Fr, 22.02. 1:00 0
Do, 21.02. 19:00 0
Do, 21.02. 13:00 0
Ortszeit Schneehöhe (cm)
Sa, 23.02. 11:00 0
Sa, 23.02. 10:50 0
Sa, 23.02. 10:40 0
Sa, 23.02. 10:30 0
Sa, 23.02. 10:20 0
Sa, 23.02. 10:10 0
Sa, 23.02. 10:00 0
Sa, 23.02. 9:30 0
Sa, 23.02. 9:00 0
Sa, 23.02. 8:30 0
Sa, 23.02. 8:00 0
Link zu dieser Seite / Seite empfehlen

Das Wetter in ...